Regional Weather Roundup
Issued by NWS

Home | Current Version | Previous Version | Text Only | Print | Product List | Glossary On
Versions: 1 2 3 4 5 6 7 8 9 10 11 12 13 14 15 16 17 18 19 20 21 22 23 24 25 26 27 28 29 30 31 32 33 34 35 36 37 38 39 40 41 42 43 44 45 46 47 48 49 50
000
ASUS46 KSTO 290104
RWRCA

NORTHERN AND CENTRAL CA REGIONAL WEATHER ROUNDUP
NATIONAL WEATHER SERVICE SACRAMENTO CA
600 PM PDT THU MAY 28 2015

NOTE: FAIR INDICATES FEW OR NO CLOUDS BELOW 12,000 FEET WITH NO
SIGNIFICANT WEATHER AND/OR OBSTRUCTIONS TO VISIBILITY.

CAZ001-003-290200-
NORTHWEST AREA

CITY           SKY/WX    TMP DP  RH WIND       PRES   REMARKS
CRESCENT CITY  CLOUDY    53  51  93 NW9       30.06S FOG
UKIAH          SUNNY     85  50  29 SW10      29.90F
$$

CAZ006-505>513-290200-
BAY AREA

CITY           SKY/WX    TMP DP  RH WIND       PRES   REMARKS
SANTA ROSA     MOSUNNY   71  50  47 SE13      29.93F
SAN RAFAEL     N/A       71  MM  MM MISG
NAPA           SUNNY     68  54  60 S14       29.94F
CONCORD        SUNNY     78  51  38 W9        29.93F
OAKLAND CITY   N/A       65  MM  MM MISG
OAKLAND        PTSUNNY   60  51  72 W14       29.99F
SAN FRAN CITY  N/A       57  MM  80 MISG
SAN FRAN ARPT  PTSUNNY   58  51  78 W24G30    30.00F
LIVERMORE      SUNNY     72  49  44 NW12      29.94F
HAYWARD        MOSUNNY   61  52  72 NW12      29.99F
REDWOOD CITY   N/A       MM  MM  MM MISG
MOFFETT ARPT   SUNNY     63  54  72 N14       29.99F
SAN JOSE ARPT  MOSUNNY   66  52  60 NW14      29.97F
$$
CAZ034-037-514>518-290200-
CENTRAL COAST

CITY           SKY/WX    TMP DP  RH WIND       PRES   REMARKS
WATSONVILLE    SUNNY     67  52  58 SE7       29.98F
SALINAS        SUNNY     61  51  70 W14       29.99S
MONTEREY       CLOUDY    58  50  75 SW8       30.01F
SAN LUIS OBISP SUNNY     65  51  60 NW15      29.94S
SANTA MARIA    SUNNY     63  53  70 NW14      29.96F
$$
CAZ015-016-290200-
NORTHERN SACRAMENTO VALLEY

CITY           SKY/WX    TMP DP  RH WIND       PRES   REMARKS
REDDING        SUNNY     92  51  24 SE10      29.85F
RED BLUFF      SUNNY     89  51  27 SE12      29.86F
OROVILLE       SUNNY     89  50  26 CALM      29.89F
$$
CAZ016>018-290200-
SOUTHERN SACRAMENTO VALLEY

CITY           SKY/WX    TMP DP  RH WIND       PRES   REMARKS
AUBURN         MOSUNNY   81  48  32 W6        29.96F
BEALE AFB      PTSUNNY   86  55  35 S7        29.87F
LINCOLN        FAIR      82  46  28 S3        29.88F
MARYSVILLE     PTSUNNY   86  52  30 SE8       29.88F
SAC INTL ARPT  MOSUNNY   85  52  32 SE5       29.87F
MATHER AIRPORT MOSUNNY   84  50  30 W3        29.89F
DOWNTOWN SAC   N/A       87  MM  MM MISG
SAC EXEC ARPT  MOSUNNY   84  54  35 S7        29.89F
VACAVILLE      SUNNY     85  53  33 S7        29.89F
TRAVIS AFB     SUNNY     76  55  47 SW22      29.88F
$$
CAZ019>021-290200-
SAN JOAQUIN VALLEY

CITY           SKY/WX    TMP DP  RH WIND       PRES   REMARKS
STOCKTON       SUNNY     83  56  39 NW10      29.89F
MODESTO        SUNNY     85  52  32 NW8       29.88F
MERCED         SUNNY     84  49  29 NW10      29.88F
LEMOORE        MOSUNNY   90  40  17 N10       29.87F
FRESNO         MOSUNNY   89  42  19 N12       29.88F
HANFORD        SUNNY     90  40  17 NW9       29.87F
PORTERVILLE    SUNNY     90  46  22 NW9       29.88F
BAKERSFIELD    SUNNY     89  45  21 NW8       29.87F
$$
CAZ011-012-071-290200-
NORTHERN MOUNTAINS

CITY           SKY/WX    TMP DP  RH WIND       PRES   REMARKS
YREKA          PTSUNNY   88  36  15 NE7       29.95F
MOUNT SHASTA   PTSUNNY   80  42  25 CALM      30.00F
ALTURAS        SUNNY     79  37  22 N6        30.05F
$$
CAZ011-012-071-290200-
SIERRA NEVADA MTNS

CITY           SKY/WX    TMP DP  RH WIND       PRES   REMARKS
BLUE CANYON    MOSUNNY   68  35  29 SW8       30.16F
TRUCKEE        MOSUNNY   72  39  30 W12       30.14S
TAHOE VLY ARPT PTSUNNY   71  32  23 NE9       30.15F
MAMMOTH LAKES  FAIR      70  23  17 NW14G20   30.18S
$$



USA.gov is the U.S. government's official web portal to all federal, state and local government web resources and services.